This demonstration page uses our WeatherBlox Daily Observations layout. Learn more.

Left ArrowRight Arrow

53.62937, 11.41316

Hourly Observations for June 27, 2018

Temp ( °F °C ) Dew Point ( °F °C ) Humidity (%) Winds ( mph kmh ) Pressure ( in mb ) Visibility ( mi km ) Precip ( " mm )
6:50 am 06:50 Mostly Sunny 59 15 59 15 100 100 VRB 1 2 30.30 1026 5 8 N/A
7:20 am 07:20 Mostly Sunny 61 16 57 14 88 88 VRB 2 4 30.30 1026 7 11 N/A
7:50 am 07:50 Mostly Sunny 64 18 55 13 73 73 ENE 3 6 30.30 1026 7 11 N/A
8:20 am 08:20 Mostly Sunny 64 18 54 12 68 68 ENE 5 7 30.33 1027 7 11 N/A
8:50 am 08:50 Mostly Sunny 66 19 52 11 60 60 ENE 6 9 30.33 1027 7 11 N/A
9:20 am 09:20 Mostly Sunny 68 20 52 11 56 56 VRB 3 6 30.33 1027 7 11 N/A
9:50 am 09:50 Mostly Sunny 70 21 52 11 53 53 ENE 6 9 30.33 1027 7 11 N/A
10:20 am 10:20 Mostly Sunny 70 21 50 10 50 50 E 7 11 30.33 1027 7 11 N/A
10:50 am 10:50 Mostly Sunny 72 22 48 9 44 44 ENE 7 11 30.33 1027 7 11 N/A
11:20 am 11:20 Mostly Sunny 73 23 50 10 44 44 ENE 6 9 30.33 1027 7 11 N/A
11:50 am 11:50 Mostly Sunny 73 23 46 8 38 38 NE 9 15 30.33 1027 7 11 N/A
12:20 pm 12:20 Mostly Sunny 73 23 48 9 41 41 NE 9 15 30.33 1027 7 11 N/A
12:50 pm 12:50 Mostly Sunny 73 23 52 11 47 47 VRB 8 13 30.33 1027 7 11 N/A
1:20 pm 13:20 Mostly Sunny 73 23 55 13 53 53 NE 12 19 30.30 1026 7 11 N/A
1:50 pm 13:50 Mostly Sunny 73 23 55 13 53 53 NNE 12 19 30.30 1026 7 11 N/A
2:20 pm 14:20 Mostly Sunny 73 23 55 13 53 53 NE 10 17 30.30 1026 7 11 N/A
2:50 pm 14:50 Mostly Sunny 73 23 57 14 57 57 NNE 13 20 30.30 1026 7 11 N/A
3:20 pm 15:20 Mostly Sunny 73 23 57 14 57 57 NE 14 22 30.30 1026 7 11 N/A
3:50 pm 15:50 Mostly Sunny 73 23 57 14 57 57 NNE 14 22 30.30 1026 7 11 N/A
4:20 pm 16:20 Mostly Sunny 73 23 57 14 57 57 N 14 22 30.30 1026 7 11 N/A
4:50 pm 16:50 Mostly Sunny 73 23 59 15 61 61 NNE 13 20 30.30 1026 7 11 N/A
5:20 pm 17:20 Mostly Sunny 73 23 57 14 57 57 NNE 13 20 30.30 1026 7 11 N/A
5:50 pm 17:50 Mostly Sunny 72 22 57 14 61 61 NNE 12 19 30.30 1026 7 11 N/A
6:20 pm 18:20 Mostly Sunny 72 22 57 14 61 61 NE 12 19 30.27 1025 7 11 N/A
6:50 pm 18:50 Mostly Sunny 72 22 57 14 61 61 NE 12 19 30.27 1025 7 11 N/A
7:20 pm 19:20 Mostly Sunny 72 22 57 14 61 61 NNE 10 17 30.27 1025 7 11 N/A
7:50 pm 19:50 Mostly Sunny 70 21 55 13 60 60 NE 12 19 30.30 1026 7 11 N/A
8:20 pm 20:20 Mostly Sunny 70 21 57 14 64 64 NNE 9 15 30.27 1025 7 11 N/A
8:50 pm 20:50 Mostly Sunny 68 20 57 14 69 69 NNE 9 15 30.30 1026 7 11 N/A

Powered by AerisWeather